HIROGARI (OPUSAT-II)

Last updated on Fri Apr 15 2022 00:03:21 GMT+0000 (Coordinated Universal Time)

1 47930U 98067SG 22104.40989677 .03524807 11894-4 16214-2 0 9994 2 47930 51.6157 260.0446 0013462 303.1008 56.8718 16.20863404 61841

Satellite not in orbit